Regional Weather Roundup
Issued by NWS

Home | Current Version | Previous Version | Text Only | Print | Product List | Glossary On
Versions: 1 2 3 4 5 6 7 8 9 10 11 12 13 14 15 16 17 18 19 20 21 22 23 24 25 26 27
000
ASUS46 KSEW 300410
RWRWA

WASHINGTON REGIONAL WEATHER ROUNDUP
NATIONAL WEATHER SERVICE SEATTLE WA
900 PM PDT THU SEP 29 2016

NOTE:"FAIR" INDICATES FEW OR NO CLOUDS BELOW 12,000 FEET WITH NO
SIGNIFICANT WEATHER AND/OR OBSTRUCTIONS TO VISIBILITY.

WAZ505-507>509-300500-
SEATTLE, TACOMA, EVERETT, AND VICINITY

CITY           SKY/WX    TMP DP  RH WIND       PRES   REMARKS
EVERETT        CLOUDY    54  46  74 CALM      30.08S
BOEING FIELD   CLOUDY    59  44  57 CALM      30.06S
RENTON         CLOUDY    58  45  62 CALM      30.05F
SEATAC AIRPORT CLOUDY    60  42  51 NE9       30.06F
JBLM-MCCHORD   CLOUDY    53  46  75 MISG      30.05F
PUYALLUP       FAIR      54  45  71 CALM      30.06S
BREMERTON      MOCLDY    52  43  71 NE3       30.10R
JBLM-FT LEWIS  CLOUDY    58  47  67 VRB5      30.06R
TACOMA NARROWS CLOUDY    56  43  61 CALM      30.06F
$$

WAZ001-503-506-510-514-515-300500-
NORTH INTERIOR

CITY           SKY/WX    TMP DP  RH WIND       PRES   REMARKS
BELLINGHAM     PTCLDY    50  47  89 S5        30.06S
FRIDAY HARBOR  MOCLDY    49  45  86 CALM      30.07S
EASTSOUND      MOCLDY    52  45  76 CALM      30.04F
PORT ANGELES   MOCLDY    50  45  83 W6        30.08S
EDIZ HOOK      NOT AVBL
PORT TOWNSEND  CLOUDY    46  41  81 CALM      30.07F
NAS WHIDBEY    MOCLDY    48  43  82 SE5       30.10F
ARLINGTON      CLOUDY    52  43  71 CALM      30.09S
BURLINGTON     CLOUDY    48  46  93 CALM      30.07S
$$

WAZ020-022-039-040-504-511-512-300500-
SOUTHWEST INTERIOR

CITY           SKY/WX    TMP DP  RH WIND       PRES   REMARKS
SHELTON        MOCLDY    55  46  71 W5        30.05R
OLYMPIA        MOCLDY    54  46  74 SE3       30.06S
CHEHALIS       FAIR      55  48  76 CALM      30.07S
KELSO          MOCLDY    56  50  80 CALM      30.07S
VANCOUVER      CLEAR     61  45  55 NW5       30.04F
SCAPPOOSE, OR  PTCLDY    58  46  64 N7        30.04F
PORTLAND, OR   MOCLDY    60  45  57 NW8       30.05S
$$

WAZ021-516-517-300500-
WASHINGTON COAST

CITY           SKY/WX    TMP DP  RH WIND       PRES   REMARKS
FORKS          CLEAR     48  46  93 NW3       30.09S
HOQUIAM        PTCLDY    53  52  96 SW7       30.09S
ASTORIA, OR    CLOUDY    57  52  83 SW3       30.09S
$$

WAZ019-023-024-040-518-519-300500-
CASCADE MOUNTAINS AND COLUMBIA GORGE

CITY           SKY/WX    TMP DP  RH WIND       PRES   REMARKS
STAMPEDE PASS  CLOUDY    44  41  89 VRB6      30.06S
TROUTDALE, OR  PTCLDY    61  45  55 MISG      30.04S
THE DALLES, OR MOCLDY    65  44  46 W13       29.95F
$$

WAZ026-027-041>044-520-521-300500-
EAST SLOPES

CITY           SKY/WX    TMP DP  RH WIND       PRES   REMARKS
OMAK           MOCLDY    64  39  39 N10       29.89S
WENATCHEE      MOCLDY    69  48  47 NW12      29.89R
ELLENSBURG     MOCLDY    59  45  59 NW16      29.93R
YAKIMA         MOCLDY    69  46  43 NW6       29.90S
$$

WAZ028-034-035-300500-
COLUMBIA BASIN

CITY           SKY/WX    TMP DP  RH WIND       PRES   REMARKS
EPHRATA        MOCLDY    60  41  49 SW6       29.88S
MOSES LAKE     PTCLDY    66  41  40 S3        29.89R
PASCO          PTCLDY    66  48  52 E5        29.89S
HERMISTON, OR  PTCLDY    70  47  43 SW8       29.91R
$$

WAZ036>038-300500-
NORTHEAST WASHINGTON

CITY           SKY/WX    TMP DP  RH WIND       PRES   REMARKS
SPOKANE GEIGER MOCLDY    67  43  41 S8        29.95R
SPOKANE FELTS  PTCLDY    64  47  53 CALM      29.93R
FAIRCHILD AFB  MOCLDY    62  44  50 S7        29.95R
COEURDALENE,ID CLEAR     61  52  72 CALM      29.95R
DEER PARK      MOCLDY    57  44  62 E5        29.93S
$$

WAZ029>033-300500-
SOUTHEAST WASHINGTON

CITY           SKY/WX    TMP DP  RH WIND       PRES   REMARKS
PULLMAN        CLOUDY    70  47  43 E9        29.96F
LEWISTON, ID   CLOUDY    70  50  49 S10       29.88S
WALLA WALLA    MOCLDY    67  44  43 S8        29.94R
PENDLETON, OR  MOCLDY    65  42  43 E6        29.93S
$$




USA.gov is the U.S. government's official web portal to all federal, state and local government web resources and services.